Weather History for KRWL - October, 2013

Change the Weather History Date:

Tuesday, October 15, 2013

  Actual Average Record
Temperature  
Mean Temperature 28 °F 44 °F  
Max Temperature 31 °F 57 °F 74 °F (2011)
Min Temperature 25 °F 31 °F 14 °F (1970)
Degree Days  
Heating Degree Days 37 21  
Month to date heating degree days 358 280  
Since 1 July heating degree days 573 666  
Cooling Degree Days 0 0  
Month to date cooling degree days 0 0  
Year to date cooling degree days 371 186  
Moisture  
Dew Point 22 °F    
Average Humidity 78    
Maximum Humidity 92    
Minimum Humidity 63    
Precipitation  
Precipitation 0.00 in 0.03 in 1.44 in (1980)
Month to date precipitation 1.14 0.41  
Year to date precipitation 7.38 7.93  
Sea Level Pressure  
Sea Level Pressure 30.32 in    
Wind  
Wind Speed 6 mph (NE)    
Max Wind Speed 13 mph    
Max Gust Speed 15 mph    
Visibility 10 miles    
Events      
T = Trace of Precipitation, MM = Missing Value Source: NWS Daily Summary

Daily Weather History Graph

Daily Weather History Graph

Search for Another Location

Airport or City:

Trip Planner

Search our weather history database for the weather conditions in past years. The results will help you decide how hot, cold, wet, or windy it might be!

Date:

Astronomy

Oct. 15, 2013 Rise Set
Actual Time 7:21 AM MDT 6:26 PM MDT
Civil Twilight 6:53 AM MDT 6:54 PM MDT
Nautical Twilight 6:21 AM MDT 7:27 PM MDT
Astronomical Twilight 5:48 AM MDT 7:59 PM MDT
Moon 4:36 PM MDT (10/15) 3:44 AM MDT (10/15)
Length of Visible Light 12h 01m
Length of Day
11h 05m
Waxing Gibbous, 88% of the Moon is Illuminated
Oct 15
Waxing Gibbous
Oct 18
Full
Oct 26
Last Quarter
Nov 3
New
Nov 9
First Quarter

Hourly Weather History & Observations

Time (MDT) Temp. Windchill Dew Point Humidity Pressure Visibility Wind Dir Wind Speed Gust Speed Precip Events Conditions
12:07 AM 26.6 °F 16.2 °F 24.8 °F 93% 30.27 in 10.0 mi ENE 11.5 mph - N/A   Overcast
12:53 AM 27.0 °F 16.7 °F 24.1 °F 89% 30.32 in 10.0 mi ENE 11.5 mph - N/A   Overcast
1:33 AM 26.6 °F 17.5 °F 24.8 °F 93% 30.28 in 10.0 mi ENE 9.2 mph - N/A   Overcast
1:53 AM 27.0 °F 18.7 °F 24.1 °F 89% 30.33 in 10.0 mi ENE 8.1 mph - N/A   Overcast
2:53 AM 26.1 °F 16.8 °F 23.0 °F 88% 30.34 in 10.0 mi NE 9.2 mph - N/A   Overcast
3:53 AM 26.1 °F 17.6 °F 23.0 °F 88% 30.34 in 10.0 mi NE 8.1 mph - N/A   Overcast
4:53 AM 26.1 °F 19.4 °F 23.0 °F 88% 30.35 in 10.0 mi ENE 5.8 mph - N/A   Overcast
5:06 AM 26.6 °F 18.2 °F 23.0 °F 86% 30.29 in 10.0 mi ENE 8.1 mph - N/A   Overcast
5:16 AM 26.6 °F 18.2 °F 23.0 °F 86% 30.30 in 10.0 mi ENE 8.1 mph - N/A   Overcast
5:40 AM 26.6 °F 16.2 °F 23.0 °F 86% 30.29 in 10.0 mi ENE 11.5 mph - N/A   Overcast
5:53 AM 26.1 °F 17.6 °F 23.0 °F 88% 30.36 in 10.0 mi ENE 8.1 mph - N/A   Overcast
6:12 AM 26.6 °F 15.7 °F 23.0 °F 86% 30.29 in 10.0 mi ENE 12.7 mph - N/A   Overcast
6:42 AM 26.6 °F 16.8 °F 21.2 °F 80% 30.29 in 10.0 mi NE 10.4 mph - N/A   Overcast
6:53 AM 26.1 °F 16.8 °F 21.9 °F 84% 30.36 in 10.0 mi ENE 9.2 mph - N/A   Overcast
7:10 AM 26.6 °F 18.2 °F 21.2 °F 80% 30.30 in 10.0 mi ENE 8.1 mph - N/A   Overcast
7:53 AM 26.1 °F 16.8 °F 21.9 °F 84% 30.36 in 10.0 mi NE 9.2 mph - N/A   Overcast
8:53 AM 27.0 °F 18.7 °F 21.0 °F 78% 30.39 in 10.0 mi ENE 8.1 mph - N/A   Overcast
9:53 AM 28.0 °F 20.8 °F 21.9 °F 78% 30.40 in 10.0 mi ENE 6.9 mph - N/A   Overcast
10:53 AM 28.0 °F 21.7 °F 21.0 °F 75% 30.38 in 10.0 mi East 5.8 mph - N/A   Overcast
11:53 AM 28.9 °F 21.1 °F 21.0 °F 72% 30.38 in 10.0 mi ENE 8.1 mph - N/A   Overcast
12:53 PM 30.0 °F 23.2 °F 21.0 °F 69% 30.35 in 10.0 mi NE 6.9 mph - N/A   Overcast
1:53 PM 30.0 °F 25.2 °F 21.0 °F 69% 30.33 in 10.0 mi NE 4.6 mph - N/A   Overcast
2:53 PM 30.9 °F - 19.9 °F 64% 30.32 in 10.0 mi Calm Calm - N/A   Overcast
3:53 PM 30.9 °F 27.5 °F 19.9 °F 64% 30.30 in 10.0 mi WNW 3.5 mph - N/A   Overcast
4:53 PM 30.9 °F 27.5 °F 21.0 °F 67% 30.29 in 10.0 mi WNW 3.5 mph - N/A   Overcast
5:53 PM 30.9 °F 26.2 °F 21.0 °F 67% 30.28 in 10.0 mi NNW 4.6 mph - N/A   Overcast
6:53 PM 30.0 °F 24.1 °F 21.9 °F 72% 30.29 in 10.0 mi NW 5.8 mph - N/A   Overcast
7:53 PM 28.9 °F 25.2 °F 21.9 °F 75% 30.30 in 10.0 mi NNW 3.5 mph - N/A   Mostly Cloudy
8:27 PM 28.4 °F - 21.2 °F 74% 30.23 in 10.0 mi Calm Calm - N/A   Scattered Clouds
8:53 PM 27.0 °F - 21.9 °F 81% 30.32 in 10.0 mi Calm Calm - N/A   Clear
9:53 PM 25.0 °F - 21.0 °F 85% 30.30 in 10.0 mi Calm Calm - N/A   Partly Cloudy
10:53 PM 26.1 °F 21.9 °F 21.9 °F 84% 30.29 in 10.0 mi WSW 3.5 mph - N/A   Mostly Cloudy
11:53 PM 26.1 °F 19.4 °F 21.9 °F 84% 30.27 in 10.0 mi WSW 5.8 mph - N/A   Scattered Clouds